Change the Weather History Date:

Saturday, April 5, 2014

  Actual Average Record
Temperature  
Mean Temperature 37 °F 42 °F  
Max Temperature 50 °F 52 °F 80 °F (1991)
Min Temperature 24 °F 32 °F 12 °F (1979)
Degree Days  
Heating Degree Days 28 23  
Month to date heating degree days 160 119  
Since 1 July heating degree days 7830 6907  
Cooling Degree Days 0 0  
Month to date cooling degree days 0 0  
Year to date cooling degree days 0 0  
Moisture  
Dew Point 29 °F    
Average Humidity 77    
Maximum Humidity 100    
Minimum Humidity 54    
Precipitation  
Precipitation 0.00 in 0.07 in 0.91 in (1999)
Month to date precipitation 0.81 0.36  
Year to date precipitation 4.46 3.92  
Snow  
Snow 0.00 in 0.10 in 1.50 in (1964)
Month to date snowfall 6.7 0.6  
Since 1 July snowfall 69.5 52.6  
Snow Depth 4.00 in    
Sea Level Pressure  
Sea Level Pressure 30.08 in    
Wind  
Wind Speed 8 mph (SSW)    
Max Wind Speed 16 mph    
Max Gust Speed 20 mph    
Visibility 8 miles    
Events      
T = Trace of Precipitation, MM = Missing Value Source: NWS Daily Summary

Daily Weather History Graph

Daily Weather History Graph

Search for Another Location

Airport or City:

Trip Planner

Search our weather history database for the weather conditions in past years. The results will help you decide how hot, cold, wet, or windy it might be!

Date:

Astronomy

Apr. 05, 2014 Rise Set
Actual Time 6:46 AM CDT 7:45 PM CDT
Civil Twilight 6:16 AM CDT 8:15 PM CDT
Nautical Twilight 5:40 AM CDT 8:51 PM CDT
Astronomical Twilight 5:03 AM CDT 9:28 PM CDT
Moon 10:45 AM CDT (4/5) 1:05 AM CDT (4/5)
Length of Visible Light 13h 59m
Length of Day
12h 59m
Waxing Crescent, 34% of the Moon is Illuminated
Apr 5
Waxing Crescent
Apr 7
First Quarter
Apr 15
Full
Apr 22
Last Quarter
Apr 29
New

Hourly Weather History & Observations

Time (CDT) Temp. Windchill Dew Point Humidity Pressure Visibility Wind Dir Wind Speed Gust Speed Precip Events Conditions
12:53 AM 30.9 °F 25.2 °F 27.0 °F 85% 30.08 in 10.0 mi West 5.8 mph - N/A   Clear
1:53 AM 28.9 °F 23.9 °F 26.1 °F 89% 30.10 in 8.0 mi WSW 4.6 mph - N/A   Clear
2:53 AM 28.0 °F 22.8 °F 26.1 °F 92% 30.11 in 7.0 mi SSW 4.6 mph - N/A   Clear
3:53 AM 26.1 °F 20.5 °F 24.1 °F 92% 30.11 in 8.0 mi SW 4.6 mph - N/A   Clear
4:53 AM 26.1 °F 21.9 °F 24.1 °F 92% 30.11 in 7.0 mi WSW 3.5 mph - N/A   Clear
5:53 AM 25.0 °F 20.7 °F 25.0 °F 100% 30.11 in 5.0 mi SW 3.5 mph - N/A   Clear
6:37 AM 25.0 °F 17.1 °F 24.1 °F 96% 30.09 in 4.0 mi SW 6.9 mph - N/A   Mostly Cloudy
6:53 AM 24.1 °F 18.2 °F 24.1 °F 100% 30.13 in 3.0 mi SW 4.6 mph - N/A   Mostly Cloudy
7:09 AM 24.1 °F - 24.1 °F 100% 30.10 in 3.0 mi Calm Calm - N/A   Scattered Clouds
7:40 AM 24.1 °F 17.0 °F 24.1 °F 100% 30.11 in 4.0 mi South 5.8 mph - N/A   Partly Cloudy
7:53 AM 25.0 °F 19.3 °F 25.0 °F 100% 30.14 in 5.0 mi South 4.6 mph - N/A   Scattered Clouds
8:53 AM 27.0 °F 21.6 °F 27.0 °F 100% 30.15 in 8.0 mi South 4.6 mph - N/A   Scattered Clouds
9:53 AM 32.0 °F 27.5 °F 27.0 °F 82% 30.15 in 10.0 mi South 4.6 mph - N/A   Partly Cloudy
10:53 AM 36.0 °F 29.0 °F 27.0 °F 70% 30.15 in 10.0 mi SSW 9.2 mph - N/A   Clear
11:53 AM 39.0 °F 31.8 °F 27.0 °F 62% 30.14 in 10.0 mi SSW 11.5 mph - N/A   Clear
12:53 PM 41.0 °F 34.3 °F 28.0 °F 60% 30.13 in 10.0 mi South 11.5 mph - N/A   Clear
1:53 PM 43.0 °F 36.0 °F 28.9 °F 58% 30.11 in 10.0 mi South 13.8 mph - N/A   Clear
2:53 PM 45.0 °F 40.1 °F 30.0 °F 56% 30.08 in 10.0 mi South 9.2 mph - N/A   Scattered Clouds
3:53 PM 48.0 °F - 32.0 °F 54% 30.05 in 10.0 mi South 11.5 mph - N/A   Scattered Clouds
4:53 PM 48.9 °F - 34.0 °F 56% 30.02 in 10.0 mi South 11.5 mph - N/A   Scattered Clouds
5:53 PM 48.9 °F - 36.0 °F 61% 30.02 in 10.0 mi South 11.5 mph - N/A   Mostly Cloudy
6:53 PM 48.0 °F - 37.0 °F 66% 30.02 in 10.0 mi SSE 9.2 mph - N/A   Mostly Cloudy
7:53 PM 46.0 °F 41.0 °F 37.0 °F 71% 30.00 in 10.0 mi SE 10.4 mph - N/A   Mostly Cloudy
8:53 PM 44.1 °F 39.0 °F 36.0 °F 73% 30.01 in 10.0 mi SSE 9.2 mph - N/A   Mostly Cloudy
9:53 PM 44.1 °F 38.6 °F 35.1 °F 71% 30.01 in 10.0 mi SSE 10.4 mph - N/A   Scattered Clouds
10:53 PM 39.9 °F 33.9 °F 35.1 °F 83% 30.00 in 10.0 mi SSE 9.2 mph - N/A   Partly Cloudy
11:53 PM 39.0 °F 33.4 °F 33.1 °F 79% 29.99 in 10.0 mi SSE 8.1 mph - N/A   Partly Cloudy